Powrót do katalogu

NIMBUS 2 DEB

AktywnyLEO
NORAD 28209·DEBRIS·🇺🇸 United States

Wystrzelony May 15, 1966 z Vandenberg Space Force Base

Loading…

Następne Przeloty (najbliższe 24 godziny)

TLE

ŚwieżeSource: Space-Track

Epoka: Sep 13, 2026, 06:35 UTC

1 28209U 66040X   26256.27449330  .00001612  00000-0  20249-2 0  9999
2 28209 100.3136 254.7353 0043910  72.5733 303.1417 13.65443168644958

Śledź NIMBUS 2 DEB w czasie rzeczywistym z AllMySat

Download on the App Store